Terminal Aerodrome Forecast
Issued by NWS

Home | Current Version | Previous Version | Text Only | Print | Product List | Glossary On
Versions: 1 2 3 4 5 6 7 8 9 10 11 12 13 14 15 16 17 18 19 20 21 22 23 24 25
000
FTUS43 KIND 022300
TAFHUF
TAF
KHUF 022320Z 0300/0324 30002KT P6SM SCT200
     FM030600 00000KT 2SM BR SCT006
     FM030900 00000KT 1SM BR VV003
      TEMPO 0310/0313 1/2SM FG
     FM031400 18005KT P6SM FEW030=

USA.gov is the U.S. government's official web portal to all federal, state and local government web resources and services.